DECAYED
Showing default

XW-2F, 40910 (Decayed)

Orbit data source: Space-Track

XW-2F, 40910 was a payload satellite owned by CAMSAT (CN) in LEO that was launched on Sat, 19 Sep 2015 UTC via a CHANG ZHENG 6 launch vehicle from the Taiyaun Space Center, China (TSC). Payloads include a variety of satellites, spacecraft, and rockets equipped with specific instruments for various scientific and technological missions. These include communications satellites like Starlink; space stations such as the ISS; scientific satellites like the Hubble; Earth observation satellites from companies like Planet Labs, Umbra, and HawkEye 360; GPS; miniature CubeSats for education and research; and military/defense satellites.

Not visible in the next 10 days
XW-2F details
Identifier
40910, 2015-049M
Orbit
Decayed
Last TLE update9 months ago
Origin
Flag of CNCAMSAT (CN / PRC)
ManufacturerDFH Shenzhen
MissionDecayed Amateur Communications
Bus & MotorXW2E, Unknown motor
Mass1.5 kg wet, 1.5 kg dry
Launch date (UTC)
2015-09-19 (9 years ago)
Launch vehicle
CHANG ZHENG 6
Launch site
Taiyaun Space Center, China (TSC)
Object type
Payload
Rocket body
Debris
Shape & HBRBox, 0.116 m
Radar Cross Section0.020 m², Small (<0.1 m²)

Expand to show TLE details & history

TLE from 9 months ago
0 XW-2F
1 40910U 15049M   24092.20923921  .16747303  26701-5  28112-3 0  9997
2 40910  97.4046 122.6776 0010391 231.3491 128.6883 16.47481859473951
Epoch: 2024-04-01T05:01Z
Definitive object data (Epoch: 2024-04-01T05:01:18.267Z)
Latitude-0.00006°
Longitude-142.70128°
Altitude153.479 km
Speed7.811 km/s
True Right ascension08h 10m 42s
True Declination0° 00' 00"
Sunlit
Object was in full shadow at TLE epoch
Visualization observer readout
Observer readout values are unavailable because the object's trajectory could not be propagated. This is usually caused when the trajectory data is faulty or the object's orbit has decayed.
Visualization observer readout
Observer readout values are unavailable because the object's trajectory could not be propagated. This is usually caused when the trajectory data is faulty or the object's orbit has decayed.
Orbital elements
Apogee altitude149.549 km
Perigee altitude135.997 km
Semi-major axis6,520.91 km
Eccentricity0.0010391
Inclination97.4046°
RAAN122.6776°
Arg. of periapsis231.3491°
True anomaly128.78117°
Mean anomaly128.6883°
Eccentric anomaly128.73474°
Mean motion4.12174 °/min
BSTAR0.00028112
Orbital period87.34 mins
Loading maneuver chart data...
Loading historical data...
Loading historical data...
Loading historical data...
Loading historical data...
Loading historical data...
Loading historical data...
Loading historical data...

XW-2F Visibility forecast

Observer location: undefined°, undefined

This satellite is decayed
Span
Click to sort rows by Start time (UTC) header in descending order
Start Az.
Max El. time (UTC)
Max El. Az.
Max El.
End time (UTC)
End Az.
|